Location: Chandrammap?lem
(16.9200°N, 81.0051°E)
Time: 10:19:59
(UTC+00:00)

VEP-3 - Pass Details

Date: 29 May 2024
Orbit: 1050 x 33694 km, 24.4° (Epoch: 14 June)

Event Time Altitude Azimuth Distance (km) Brightness Sun altitude
Rises 14:10:23 0° 289° (WNW) 10,452 9.6 -14.9°
Reaches altitude 10° 14:20:28 10° 286° (WNW) 6,610 8.0 -17.0°
Maximum altitude 14:33:39 59° 209° (SSW) 1,515 3.4 -19.7°
Enters shadow 14:36:30 31° 141° (SE) 1,856 3.4 -20.3°
